Overview Statistics Trail Chart Weather Telemetry Raw packets
 

This is the latest recevied weather packets stored in our database for station/object KC0RKM-13. If no packets are shown the sender has not sent any weather packets the latest 10 day(s).

<< 12 13 14 15 16 17 18 >>
Time Temp. Humidity Pressure Rain* Wind** Luminosity Snow
1788384604 37.22° C 34% 1010.6 hPa 0 mm - - -
1788384003 37.22° C 33% 1010.7 hPa 0 mm - - -
1788383404 37.78° C 33% 1010.8 hPa 0 mm - - -
1788382804 37.22° C 34% 1010.8 hPa 0 mm - - -
1788382204 37.78° C 35% 1011 hPa 0 mm - - -
1788381603 37.22° C 35% 1011.1 hPa 0 mm - - -
1788381004 37.78° C 32% 1011.3 hPa 0 mm - - -
1788380404 37.22° C 35% 1011.5 hPa 0 mm - - -
1788379803 37.22° C 35% 1011.5 hPa 0 mm - - -
1788379219 37.78° C 33% 1011.4 hPa 0 mm - - -
1788378603 37.78° C 32% 1011.6 hPa 0 mm - - -
1788378004 37.22° C 33% 1011.8 hPa 0 mm - - -
1788377404 36.67° C 36% 1012.1 hPa 0 mm - - -
1788376803 37.22° C 35% 1012.1 hPa 0 mm - - -
1788376204 37.22° C 34% 1012 hPa 0 mm - - -
1788375603 36.67° C 35% 1012.3 hPa 0 mm - - -
1788375003 36.67° C 36% 1012.6 hPa 0 mm - - -
1788374403 36.67° C 36% 1012.5 hPa 0 mm - - -
1788373804 36.67° C 37% 1012.8 hPa 0 mm - - -
1788373203 36.67° C 37% 1012.7 hPa 0 mm - - -
1788372604 36.11° C 39% 1012.8 hPa 0 mm - - -
1788372003 36.11° C 40% 1013 hPa 0 mm - - -
1788371404 35.56° C 40% 1013.3 hPa 0 mm - - -
1788370803 35.56° C 42% 1013.3 hPa 0 mm - - -
1788370203 35° C 42% 1013.4 hPa 0 mm - - -

* Rain latest hour (hover to see other rain measurements)
** Current wind speed in m/s (hover to see current wind gust speed)